{"data":{"norad_id":59666,"intl_designator":"2024-084N","name":"STARLINK-31902","alt_names":[],"object_type":"PAYLOAD","status":"ACTIVE","operator":null,"country":"US","launch_date":"2024-05-06","launch_site_code":"AFETR","launch_vehicle":null,"mission":null,"orbit_class":"UNKNOWN","rcs_meters":null,"size_class":null,"mass_kg":null,"dimensions":null,"purposes":["comms"],"wikipedia_slug":null,"has_3d_model":false,"image_url":null,"decayed_at":null,"tle_current":{"epoch":"2026-05-24T22:51:58.865760Z","epoch_age_seconds":76592,"freshness":"FRESH","line1":"1 59666U 24084N   26144.95276465 -.00000727  00000+0 -16890-4 0  9996","line2":"2 59666  43.0024 331.3576 0001162 272.0115  88.0603 15.27573473116033","mean_motion":15.27573473,"eccentricity":0.0001162,"inclination_deg":43.0024,"raan_deg":331.3576,"arg_perigee_deg":272.0115,"mean_anomaly_deg":88.0603,"bstar":-1.689e-5,"rev_number":11603,"period_min":94.267151495632,"perigee_km":482.27136819992,"apogee_km":483.86591239072,"semimajor_km":6861.2056402953,"source":"CELESTRAK","updated_at":"2026-05-25T13:38:19.019939Z"}}}